Location: San Gennaro Vesuviano
(40.8833°N, 14.5333°E)
Time: 22:04:57
(UTC+00:00)

Cosmos 44 Rocket - Pass Details

Date: 22 April 2021
Orbit: 636 x 754 km, 65.1° (Epoch: 10 May)

Event Time Altitude Azimuth Distance (km) Brightness Sun altitude
Exits shadow 20:12:07 - 215° (SW) 2,411 6.0 -24.0°
Reaches altitude 10° 20:12:42 10° 215° (SW) 2,187 5.8 -24.1°
Maximum altitude 20:17:43 80° 302° (WNW) 747 3.4 -24.7°
Drops below altitude 10° 20:22:55 10° 30° (NNE) 2,264 6.1 -25.4°
Sets 20:25:21 0° 32° (NNE) 3,201 6.9 -25.7°
